Погода в Белогорске

Россия / Амурская область     50°55′16″N   128°28′26″E
темп.,
°C
ветер,
м/с
пор.,
м/с
влажн.,
%
обл.,
%
осадки,
мм/ч
давл.,
гПа
погр.,
м
9 мая, вс
вс900:00+6юв4879100 0.0 1001354
03:00+6св257897 0.0 1002382
06:00+6ссз3584100 0.3 1003374
09:00+7с3576100 0.4 1005572
12:00+8всв3373100 0.1 1005930
15:00+7св3483100 0.5 1006912
18:00+7ссв2382100 0.1 1007418
21:00+7ссз2588100 0.4 1008320
10 мая, пн
пн1000:00+6сз3591100 0.5 1009230
03:00+6сз2493100 0.9 1010213
06:00+6зсз2586100 0.0 1010246
09:00+7зсз3577100 0.0 1011449
12:00+7ссз3482100 0.0 1012401
15:00+9с3373100 0.0 1012667
18:00+11св2262100 0.0 1012700
21:00+7юв2280100 0.0 101320
11 мая, вт
вт1100:00+6ююв228631 0.0 101314
03:00+5ю228770 0.0 101312
06:00+5ююв368657 0.0 1014144
09:00+12ююв575396 0.0 1013703
12:00+15ю6738100 0.0 10121681
15:00+16ююв7837100 0.0 10101381
18:00+14юв81153100 0.0 10091081
21:00+12юв101858100 0.0 1007731
12 мая, ср
ср1200:00+11юв101866100 0.0 1006722
03:00+10юв112065100 0.1 1003827
06:00+9юв132284100 3.3 999881
09:00+10юв12207882 5.1 9981127
12:00+12ююв111576100 0.8 9961654
15:00+10ююв81384100 5.9 9951126
18:00+10ююв6985100 1.1 995777
21:00+9в129196 1.8 996117
13 мая, чт
чт1300:00+8ссз2294100 0.4 997133
03:00+8зсз5992100 0.8 999486
06:00+7зсз61087100 0.1 1002629
09:00+9зсз687589 0.1 1004792
12:00+15зсз68435 0.0 10051651
15:00+17сз6829100 0.0 10052218
18:00+17ссз3432100 0.0 10052520
21:00+11вюв3665100 0.4 1006142